Simultaneous Nadir Overpasses (SNOs) Predictions

Prediction of SNOs between GOES-17 and METOP-C Satellite Orbit:

Table of predicted SNOs for the next 14.0 days since TLE Epoch: 8/7/2020
Index Date Time (GOES-17) GOES-17 Lat,Lon METOP-C Lat,Lon Distance(km) Time Diff (sec)
1 08/08/2020 18:40:17 -0.00,-137.17 -0.05,-136.88 32.75 80
2 08/10/2020 06:59:17 -0.00,-137.15 -0.99,-141.47 492.40 80
3 08/11/2020 06:38:37 -0.00,-137.15 0.14,-136.48 76.29 80
4 08/12/2020 18:54:49 -0.00,-137.15 0.86,-141.04 443.39 80
5 08/13/2020 18:36:48 -0.00,-137.14 -0.22,-136.04 124.82 80
6 08/15/2020 06:53:08 0.00,-137.11 -0.77,-140.64 402.06 80
7 08/16/2020 06:35:08 0.00,-137.09 0.31,-135.64 165.58 80
8 08/17/2020 18:51:19 -0.01,-137.08 0.68,-140.20 355.64 80
9 08/18/2020 18:33:19 -0.00,-137.06 -0.40,-135.20 211.69 80
10 08/20/2020 06:49:39 0.00,-137.02 -0.60,-139.80 316.36 80
11 08/21/2020 06:31:39 0.00,-137.00 0.48,-134.79 250.67 80
